Weather History for Carbondale, IL

Change the Weather History Date:

Monday, January 16, 2012

  Actual Average Record
Temperature  
Mean Temperature 54 °F -  
Max Temperature 63 °F 39 °F 70 °F (1928)
Min Temperature 45 °F 19 °F -14 °F (1912)
Degree Days  
Heating Degree Days 11    
Growing Degree Days 4 (Base 50)    
Moisture  
Dew Point 48 °F    
Average Humidity 72    
Maximum Humidity 84    
Minimum Humidity 54    
Precipitation  
Precipitation 0.00 in - - ()
Sea Level Pressure  
Sea Level Pressure 29.92 in    
Wind  
Wind Speed 22 mph (SSW)    
Max Wind Speed 31 mph    
Max Gust Speed 41 mph    
Visibility 10 miles    
Events Rain , Thunderstorm    
Averages and records for this station are not official NWS values.
T = Trace of Precipitation, MM = Missing Value Source: NWS Daily Summary

Daily Weather History Graph

Daily Weather History Graph

Search for Another Location

Airport:

Trip Planner

Search our weather history database for the weather conditions in past years. The results will help you decide how hot, cold, wet, or windy it might be!

Date:

Astronomy

Jan. 16, 2012 Rise Set
Actual Time 7:11 AM CST 5:02 PM CST
Civil Twilight 6:42 AM CST 5:31 PM CST
Nautical Twilight 6:10 AM CST 6:03 PM CST
Astronomical Twilight 5:38 AM CST 6:34 PM CST
Moon 12:21 AM CST (1/16) 11:14 AM CST (1/16)
Length of Visible Light 10h 48m
Length of Day
9h 51m
Last Quarter, 46% of the Moon is Illuminated
Jan 16
Last Quarter
Jan 23
New
Jan 30
First Quarter
Feb 7
Full
Feb 14
Last Quarter

Hourly Weather History & Observations

Time (CST) Temp. Windchill Dew Point Humidity Pressure Visibility Wind Dir Wind Speed Gust Speed Precip Events Conditions
12:52 AM 45.0 °F 38.2 °F 30.9 °F 58% 30.11 in 10.0 mi South 15.0 mph 23.0 mph N/A   Clear
1:52 AM 45.0 °F 37.9 °F 32.0 °F 60% 30.09 in 10.0 mi South 16.1 mph 25.3 mph N/A   Clear
2:52 AM 48.9 °F - 33.1 °F 54% 30.07 in 10.0 mi SSW 20.7 mph 35.7 mph N/A   Clear
3:52 AM 50.0 °F - 34.0 °F 54% 30.05 in 10.0 mi SSW 24.2 mph 33.4 mph N/A   Clear
4:52 AM 50.0 °F - 36.0 °F 59% 30.04 in 10.0 mi SSW 24.2 mph 31.1 mph N/A   Clear
6:52 AM 52.0 °F - 39.9 °F 63% 30.00 in 10.0 mi SSW 24.2 mph 33.4 mph N/A   Clear
7:52 AM 54.0 °F - 42.1 °F 64% 29.99 in 10.0 mi SSW 27.6 mph 38.0 mph N/A   Mostly Cloudy
8:52 AM 55.0 °F - 44.1 °F 67% 29.99 in 10.0 mi South 31.1 mph 41.4 mph N/A   Overcast
9:33 AM 55.4 °F - 44.6 °F 67% 29.99 in 10.0 mi SSW 27.6 mph 36.8 mph N/A   Overcast
9:52 AM 55.0 °F - 46.0 °F 72% 29.99 in 10.0 mi South 25.3 mph 38.0 mph N/A   Overcast
10:52 AM 55.0 °F - 46.9 °F 74% 29.96 in 10.0 mi South 27.6 mph 39.1 mph N/A   Overcast
11:52 AM 55.9 °F - 48.0 °F 75% 29.93 in 10.0 mi SSW 23.0 mph 33.4 mph N/A   Overcast
12:52 PM 57.0 °F - 48.9 °F 74% 29.88 in 10.0 mi SSW 26.5 mph 39.1 mph N/A   Overcast
1:52 PM 57.9 °F - 50.0 °F 75% 29.84 in 10.0 mi SSW 26.5 mph 41.4 mph N/A   Overcast
2:52 PM 57.9 °F - 51.1 °F 78% 29.85 in 10.0 mi SSW 19.6 mph 33.4 mph N/A   Overcast
3:52 PM 59.0 °F - 52.0 °F 78% 29.84 in 10.0 mi SSW 19.6 mph 38.0 mph N/A   Overcast
4:52 PM 59.0 °F - 53.1 °F 81% 29.85 in 10.0 mi SSW 19.6 mph 32.2 mph N/A   Overcast
5:33 PM 59.0 °F - 53.6 °F 82% 29.84 in 10.0 mi SSW 28.8 mph 41.4 mph N/A   Scattered Clouds
5:52 PM 59.0 °F - 54.0 °F 83% 29.84 in 10.0 mi SSW 26.5 mph 35.7 mph N/A   Clear
6:52 PM 61.0 °F - 55.0 °F 81% 29.84 in 10.0 mi SSW 27.6 mph 38.0 mph N/A   Clear
7:52 PM 62.1 °F - 55.9 °F 80% 29.84 in 10.0 mi SSW 27.6 mph 36.8 mph N/A   Mostly Cloudy
8:32 PM 62.6 °F - 55.4 °F 77% 29.84 in 10.0 mi SSW 25.3 mph 39.1 mph N/A   Mostly Cloudy
8:52 PM 63.0 °F - 57.0 °F 81% 29.84 in 10.0 mi SSW 27.6 mph 41.4 mph N/A   Overcast
9:52 PM 63.0 °F - 57.0 °F 81% 29.84 in 10.0 mi SW 23.0 mph 34.5 mph N/A   Overcast
10:52 PM 63.0 °F - 55.9 °F 78% 29.82 in 10.0 mi SSW 20.7 mph 32.2 mph 0.00 in   Overcast
11:46 PM 62.6 °F - 55.4 °F 77% 29.80 in 10.0 mi SSW 23.0 mph 33.4 mph 0.00 in Thunderstorm Overcast
11:52 PM 62.1 °F - 57.0 °F 84% 29.79 in 10.0 mi SSW 19.6 mph 28.8 mph 0.00 in Rain , Thunderstorm Light Rain